Location: Saint-Br�vin-les-Pins
(47.2500°N, 2.1670°W)
Time: 22:09:34
(UTC+02:00)

Tiangong - Visible Passes

Search period start: 14 July 2024 00:00
Search period end: 24 July 2024 00:00
Orbit: 373 x 378 km, 41.5° (Epoch: 14 July)

Date Brightness Start Highest point End Pass type
(mag) Time Alt. Az. Time Alt. Az. Time Alt. Az.
14 Jul -0.2 05:22:41 12° SSW 05:24:25 17° SSE 05:26:32 10° ESE visible
15 Jul 0.3 04:22:54 11° SE 04:22:54 11° SE 04:23:23 10° SE visible
16 Jul -0.7 04:55:04 20° S 04:55:42 21° SSE 04:58:08 10° ESE visible
17 Jul 0.6 03:55:11 10° ESE 03:55:11 10° ESE 03:55:12 10° ESE visible
17 Jul -1.0 05:27:11 14° SW 05:29:19 27° S 05:32:01 10° ESE visible
18 Jul -0.7 04:27:16 23° SSE 04:27:16 23° SSE 04:29:17 10° ESE visible
19 Jul -1.1 04:59:23 24° SSW 05:00:09 27° S 05:02:51 10° ESE visible
20 Jul 0.3 03:59:32 13° ESE 03:59:32 13° ESE 04:00:02 10° ESE visible
20 Jul -0.8 05:31:33 13° WSW 05:33:30 22° SSW 05:36:00 10° SE visible
21 Jul -0.5 04:31:51 20° SSE 04:31:51 20° SSE 04:33:19 10° SE visible
22 Jul -0.4 05:04:26 17° S 05:04:26 17° S 05:06:03 10° SSE visible
